Date,TemperatureHighF,TemperatureAvgF,TemperatureLowF,DewpointHighF,DewpointAvgF,DewpointLowF,HumidityHigh,HumidityAvg,HumidityLow,PressureMaxIn,PressureMinIn,WindSpeedMaxMPH,WindSpeedAvgMPH,GustSpeedMaxMPH,PrecipitationSumIn
2013-1-1,36.9,14.2,4.3,14.5,2.1,-5.9,77,59,29,29.85,29.69,8,4,11,0.00
2013-1-2,36.5,13.7,-2.2,11.7,-1.7,-14.2,67,51,24,29.85,29.73,8,3,10,0.00
2013-1-3,41.7,14.5,2.1,9.2,-5.3,-12.8,57,42,23,29.94,29.83,9,3,14,0.00
2013-1-4,40.8,14.8,1.0,10.5,-2.4,-11.4,69,49,24,29.90,29.76,6,2,8,0.00
2013-1-5,43.5,15.7,-0.6,14.1,-0.2,-10.7,69,52,24,29.99,29.85,5,2,8,0.00
2013-1-6,52.0,24.0,3.7,15.1,3.0,-7.3,70,43,22,29.96,29.76,6,2,11,0.00
2013-1-7,58.3,30.0,17.1,20.2,6.1,-2.4,51,37,21,29.76,29.62,8,3,11,0.00
2013-1-8,52.0,24.5,7.2,16.0,5.4,-7.0,65,46,22,29.93,29.68,6,2,8,0.00
2013-1-9,59.2,27.2,7.5,22.2,9.3,-3.1,74,49,21,30.07,29.82,8,3,11,0.00
2013-1-10,40.8,28.1,17.8,28.6,13.2,2.4,95,55,33,29.82,29.44,12,4,21,0.00
2013-1-11,33.6,16.7,-2.6,26.1,4.7,-16.1,91,60,30,29.57,29.30,26,13,38,0.08
2013-1-12,24.3,5.1,-5.8,-0.9,-12.7,-21.6,58,44,23,29.60,29.51,16,5,21,0.00
2013-1-13,22.8,8.1,-3.8,6.1,-5.4,-19.9,66,53,42,29.63,29.58,6,3,8,0.00
2013-1-14,37.9,11.7,-3.1,19.1,-1.6,-16.2,73,55,30,29.69,29.57,12,4,17,0.00
2013-1-15,29.8,5.9,-9.0,1.6,-12.2,-23.7,57,44,25,29.92,29.69,8,3,12,0.00
2013-1-16,39.4,14.2,-2.0,8.6,-4.4,-15.3,64,45,23,30.03,29.90,6,3,10,0.00
2013-1-17,60.8,26.8,7.0,22.4,9.7,-3.5,70,51,22,30.09,29.96,7,3,8,0.01
2013-1-18,55.8,30.4,16.0,21.3,13.4,5.5,74,52,22,30.03,29.86,11,4,14,0.00
2013-1-19,51.1,26.2,12.0,21.6,9.7,-1.9,69,52,25,30.02,29.91,6,3,9,0.00
2013-1-20,51.3,25.9,9.3,20.8,8.7,-4.0,75,50,25,30.00,29.82,6,2,9,0.00
2013-1-21,53.2,27.6,12.9,23.3,11.3,1.4,73,52,24,29.97,29.86,7,3,9,0.00
2013-1-22,55.4,29.4,12.7,23.5,13.1,2.8,76,53,24,30.00,29.90,6,2,8,0.00
2013-1-23,57.6,31.4,12.6,20.8,11.0,-2.1,70,45,21,30.04,29.98,8,3,10,0.00
2013-1-24,49.6,35.9,25.2,31.3,19.9,8.5,81,53,27,29.99,29.91,13,3,20,0.00
2013-1-25,48.9,37.3,32.2,38.1,32.0,28.2,89,81,62,29.97,29.88,5,2,8,0.00
2013-1-26,38.5,35.7,34.0,37.7,33.9,31.5,99,93,85,29.88,29.61,10,3,14,0.90
2013-1-27,52.0,36.7,32.9,40.6,34.0,30.8,99,91,65,29.69,29.61,6,3,10,0.26
2013-1-28,36.0,30.8,17.8,34.0,27.6,12.8,97,88,69,29.61,29.47,14,4,22,0.34
2013-1-29,27.9,20.2,13.3,18.5,5.1,-7.0,88,56,22,29.65,29.39,22,7,33,0.00
2013-1-30,36.9,21.9,8.1,16.7,6.1,-6.7,71,51,30,29.83,29.65,13,6,23,0.00
2013-1-31,43.9,25.6,11.1,23.0,14.0,3.4,76,62,42,29.92,29.82,9,4,12,0.00
2013-2-1,50.4,30.0,15.4,26.6,17.0,7.7,75,59,34,29.95,29.83,8,3,11,0.00
2013-2-2,55.4,31.9,18.5,25.8,17.2,6.0,74,56,27,30.03,29.94,7,3,8,0.00
2013-2-3,44.2,32.0,22.8,27.7,20.4,11.6,85,63,36,29.97,29.73,10,3,14,0.00
2013-2-4,48.6,27.3,18.9,31.2,20.8,12.0,84,76,49,29.81,29.73,7,3,11,0.00
2013-2-5,56.1,33.4,16.5,31.0,20.7,6.5,82,61,35,29.80,29.71,7,3,11,0.00
2013-2-6,53.4,34.8,24.1,28.7,19.7,12.6,71,55,31,29.73,29.65,19,4,29,0.00
2013-2-7,53.1,34.7,20.7,25.1,16.9,6.4,75,50,25,29.84,29.71,8,3,11,0.00
2013-2-8,47.3,37.0,27.1,26.7,20.2,12.7,65,50,38,29.78,29.49,18,6,30,0.01
2013-2-9,30.2,24.6,19.0,25.1,16.8,11.5,86,72,55,29.49,29.35,21,6,29,0.01
2013-2-10,33.4,23.6,19.6,23.0,17.5,13.2,85,78,54,29.60,29.46,14,6,19,0.04
2013-2-11,45.3,22.4,8.1,22.3,11.5,-4.3,85,65,28,29.67,29.58,8,3,13,0.05
2013-2-12,41.2,18.6,2.8,11.3,-0.3,-12.5,64,44,23,29.81,29.66,11,4,15,0.00
2013-2-13,45.7,21.6,4.8,20.9,6.5,-5.1,66,53,28,29.81,29.75,8,4,11,0.00
2013-2-14,50.4,27.5,8.6,21.8,9.4,-3.0,69,48,25,29.85,29.75,15,4,22,0.00
2013-2-15,41.9,29.1,10.6,11.8,1.7,-6.8,52,31,22,29.98,29.84,22,8,33,0.00
2013-2-16,48.2,30.2,14.7,21.7,8.3,-2.9,56,40,23,30.02,29.83,8,4,11,0.00
2013-2-17,56.7,34.8,19.4,20.0,8.8,3.0,49,35,21,29.83,29.50,10,4,33,0.02
2013-2-18,41.7,29.7,18.5,16.3,4.6,-7.4,62,36,21,29.77,29.51,21,6,33,0.00
2013-2-19,50.0,31.0,15.6,15.4,4.7,-8.6,45,33,22,29.76,29.45,9,4,12,0.00
2013-2-20,41.4,28.0,15.6,31.0,18.9,9.7,90,70,40,29.46,29.32,10,3,16,0.09
2013-2-21,53.8,24.5,9.1,28.5,15.1,0.5,85,68,32,29.55,29.34,17,5,27,0.00
2013-2-22,41.4,23.1,11.1,27.4,8.6,-4.9,72,54,31,29.66,29.55,18,6,32,0.02
2013-2-23,36.5,21.9,7.0,21.6,5.2,-9.0,85,49,27,29.95,29.43,14,4,23,0.00
2013-2-24,39.6,22.5,8.1,17.3,4.3,-4.4,72,47,21,29.58,29.43,17,5,23,0.00
2013-2-25,40.3,25.4,7.9,16.2,3.8,-8.9,56,39,27,29.70,29.58,9,4,12,0.00
2013-2-26,33.6,23.3,9.9,13.9,1.4,-10.3,62,40,25,29.72,29.52,20,8,32,0.02
2013-2-27,37.0,23.2,8.2,4.8,-2.7,-13.7,47,32,22,29.87,29.72,11,5,17,0.00
2013-2-28,48.4,29.3,10.8,14.4,2.0,-7.9,45,31,22,29.94,29.85,18,6,24,0.00
2013-3-1,51.1,35.3,19.6,25.2,15.2,5.6,66,45,28,30.00,29.91,13,4,18,0.00
2013-3-2,57.6,40.2,21.9,29.5,21.7,11.3,67,50,27,30.04,29.89,8,4,13,0.00
2013-3-3,50.4,39.1,27.1,30.9,24.4,16.3,71,56,37,29.90,29.60,12,4,17,0.00
2013-3-4,48.6,39.9,30.7,33.0,25.5,7.0,83,58,31,29.80,29.57,22,9,31,0.06
2013-3-5,54.0,36.6,22.6,22.6,12.5,4.1,55,38,21,29.93,29.79,9,4,13,0.00
2013-3-6,63.5,42.8,28.9,25.4,18.9,8.9,60,40,20,29.86,29.70,9,4,12,0.00
2013-3-7,62.2,44.2,26.8,28.1,20.7,15.2,74,43,20,29.77,29.67,9,4,17,0.00
2013-3-8,42.4,34.6,30.4,36.1,28.3,19.8,99,79,51,29.70,29.49,17,4,27,0.08
2013-3-9,33.6,27.0,19.9,30.9,22.4,15.8,99,83,66,29.66,29.46,12,2,21,0.04
2013-3-10,47.7,31.1,14.4,28.1,16.8,7.4,82,58,29,29.83,29.66,10,4,18,0.07
2013-3-11,55.6,37.6,21.9,30.8,20.1,13.2,74,51,24,29.83,29.72,17,5,25,0.00
2013-3-12,58.3,41.9,26.6,30.6,25.4,19.4,85,54,29,29.94,29.78,15,5,21,0.00
2013-3-13,63.7,45.3,28.6,30.4,25.2,19.9,77,49,21,30.02,29.93,12,4,17,0.00
2013-3-14,67.8,51.0,32.9,27.7,21.9,18.2,60,34,17,30.03,29.92,13,5,18,0.00
2013-3-15,70.3,52.2,33.1,30.6,22.1,16.3,63,34,16,29.95,29.74,15,6,27,0.00
2013-3-16,62.2,47.3,34.3,33.2,26.0,19.7,73,46,24,29.75,29.60,20,6,30,0.00
2013-3-17,57.6,42.9,31.1,33.0,21.0,7.3,77,47,21,29.64,29.49,29,8,42,0.06
2013-3-18,52.0,41.6,28.8,15.1,11.2,5.0,48,29,21,29.75,29.61,22,8,37,0.02
2013-3-19,56.8,42.2,29.5,24.3,14.1,4.7,61,34,21,29.87,29.72,15,6,24,0.00
2013-3-20,54.0,40.7,26.6,33.2,20.1,7.1,76,46,21,29.88,29.64,15,5,27,0.00
2013-3-21,55.6,44.3,32.5,35.6,21.4,0.7,83,46,21,29.65,29.47,26,9,42,0.00
2013-3-22,54.7,39.1,21.7,15.6,9.5,-1.0,50,31,20,29.57,29.40,31,9,49,0.90
2013-3-23,37.9,26.9,17.6,5.3,-2.5,-8.9,48,28,21,29.74,29.46,22,11,36,0.00
2013-3-24,40.5,26.6,9.7,6.4,-0.3,-6.5,55,32,21,29.74,29.63,22,7,40,0.02
2013-3-25,49.3,32.1,12.6,14.0,3.5,-4.2,48,30,21,29.82,29.73,22,6,35,0.00
2013-3-26,56.1,40.7,24.1,20.5,13.2,6.4,57,35,21,29.81,29.70,13,4,20,0.00
2013-3-27,63.1,48.6,31.1,26.6,18.1,9.1,62,32,19,29.79,29.70,16,6,36,0.00
2013-3-28,63.5,48.9,32.7,23.1,17.6,11.0,53,30,19,29.85,29.78,16,6,29,0.00
2013-3-29,66.2,50.0,35.1,28.6,22.4,19.7,56,36,20,29.89,29.83,18,6,28,0.00
2013-3-30,66.4,50.9,33.4,28.4,23.3,19.8,61,37,18,30.58,29.77,17,7,30,0.00
2013-3-31,66.6,52.0,35.4,27.6,23.5,19.8,63,36,17,29.84,29.73,16,6,27,0.00
2013-4-1,64.6,52.5,37.8,36.6,24.1,10.2,75,37,18,29.78,29.64,19,7,34,0.00
2013-4-2,55.8,42.6,28.8,31.7,19.2,7.9,73,42,21,29.72,29.64,16,6,29,0.00
2013-4-3,64.6,44.7,26.8,30.3,20.7,10.2,83,44,19,29.85,29.71,20,8,36,0.00
2013-4-4,66.2,50.6,33.8,22.5,17.6,10.0,46,28,18,29.92,29.81,16,6,24,0.00
2013-4-5,66.9,52.3,37.8,24.7,21.0,15.7,50,31,18,29.84,29.65,18,7,31,0.00
2013-4-6,64.8,53.0,37.6,29.2,23.2,15.7,64,34,18,29.75,29.65,22,7,34,0.00
2013-4-7,63.7,51.0,34.5,30.8,21.1,10.1,62,33,19,29.67,29.55,18,6,34,0.00
2013-4-8,62.2,44.7,32.4,33.5,24.4,15.5,99,49,20,29.55,29.19,32,11,51,1.51
2013-4-9,39.7,33.5,28.4,36.6,32.6,28.2,99,97,82,29.54,29.25,17,5,25,0.19
2013-4-10,43.7,31.0,24.3,29.2,24.6,18.3,99,78,47,29.66,29.54,8,2,12,0.00
2013-4-11,55.9,38.2,21.6,38.2,24.7,14.9,77,59,39,29.66,29.57,19,5,29,0.00
2013-4-12,62.1,45.7,28.6,31.9,22.6,17.7,75,43,20,29.69,29.60,16,5,27,0.00
2013-4-13,62.4,49.8,29.8,28.5,21.0,16.6,68,35,20,29.68,29.41,26,9,39,0.00
2013-4-14,59.4,51.1,41.5,34.3,25.0,17.9,67,38,23,29.51,29.40,25,10,41,0.00
2013-4-15,64.4,52.1,40.6,32.7,25.1,17.1,64,38,19,29.50,29.40,28,10,43,0.04
2013-4-16,66.2,51.8,38.8,31.0,23.1,15.2,67,36,17,29.55,29.42,32,13,48,0.71
2013-4-17,46.6,39.3,25.9,30.6,17.1,4.0,82,42,22,29.62,29.49,28,12,41,0.00
2013-4-18,40.5,31.9,23.2,6.4,-0.0,-7.1,36,25,21,29.86,29.62,23,14,36,0.00
2013-4-19,55.0,38.2,16.2,15.8,5.7,-9.7,43,26,21,29.89,29.73,23,8,34,0.00
2013-4-20,56.7,45.8,31.5,29.4,22.1,9.9,62,40,25,29.77,29.66,20,8,30,0.00
2013-4-21,62.2,47.9,27.9,24.6,20.0,13.1,68,36,19,29.85,29.75,23,8,39,0.06
2013-4-22,68.0,52.5,33.6,25.2,20.7,15.2,57,32,17,29.76,29.56,30,9,44,0.44
2013-4-23,52.7,44.6,30.9,24.1,14.0,-1.6,54,30,21,29.80,29.56,30,10,43,0.09
2013-4-24,61.2,44.1,21.7,20.5,9.5,-5.3,35,24,19,29.83,29.76,19,6,30,0.00
2013-4-25,67.1,51.5,36.9,36.1,19.9,8.7,71,31,17,29.82,29.67,18,7,36,0.01
2013-4-26,63.3,49.9,35.4,34.2,27.5,17.7,77,45,21,29.93,29.78,23,6,35,0.00
2013-4-27,71.2,53.9,34.7,24.3,19.9,14.2,52,29,15,29.95,29.82,17,6,33,0.00
2013-4-28,72.7,58.0,36.3,23.1,19.1,11.4,45,23,14,29.86,29.70,19,7,30,0.00
2013-4-29,75.9,60.9,43.7,28.2,22.0,15.2,44,23,14,29.74,29.60,21,8,32,0.00
2013-4-30,75.9,61.0,42.1,30.8,22.3,17.7,48,25,13,29.65,29.55,26,10,41,0.14
2013-5-1,62.4,53.3,36.7,29.3,16.8,1.5,42,24,19,29.94,29.61,25,10,35,0.00
2013-5-2,57.0,44.6,27.0,19.5,9.7,-4.5,30,24,20,30.08,29.94,18,8,30,0.00
2013-5-3,64.6,46.9,25.9,21.0,12.6,2.2,45,26,17,30.00,29.73,12,5,21,0.00
2013-5-4,72.0,53.5,32.4,21.5,16.3,8.4,41,24,13,29.74,29.65,14,5,21,0.00
2013-5-5,66.7,56.8,46.6,30.4,20.7,13.7,42,25,18,29.83,29.72,17,6,34,0.00
2013-5-6,54.0,47.7,42.1,45.2,39.4,29.6,97,74,39,29.80,29.73,19,6,30,0.17
2013-5-7,64.8,51.0,34.9,43.7,33.6,21.9,99,59,21,29.82,29.67,15,4,30,0.05
2013-5-8,55.8,45.7,36.0,40.8,33.9,23.7,96,66,31,29.80,29.71,18,6,31,0.14
2013-5-9,60.1,44.7,35.4,40.8,35.0,29.0,87,70,37,29.87,29.76,18,5,24,0.01
2013-5-10,66.7,49.1,33.8,42.7,34.6,25.5,86,61,24,30.00,29.85,19,5,30,0.05
2013-5-11,69.1,52.5,36.1,42.4,32.9,22.9,88,53,18,30.03,29.97,17,5,28,0.05
2013-5-12,75.2,57.3,38.3,40.9,34.3,23.9,80,47,16,30.04,29.89,12,5,22,0.00
2013-5-13,82.9,63.9,46.0,41.3,33.8,24.4,58,36,13,30.00,29.88,13,5,20,0.00
2013-5-14,81.9,63.6,48.7,41.7,36.2,27.2,60,38,16,30.57,29.77,19,7,28,0.00
2013-5-15,80.1,65.1,47.7,43.3,34.2,15.5,73,36,14,29.82,29.68,18,6,34,0.00
2013-5-16,77.9,61.4,41.7,36.2,24.6,14.3,53,27,15,29.81,29.68,17,5,39,0.00
2013-5-17,76.3,60.9,41.4,31.0,23.6,18.2,53,27,13,29.80,29.69,21,6,31,0.00
2013-5-18,68.9,56.6,44.6,36.8,27.2,18.8,58,34,17,29.79,29.68,17,7,33,0.00
2013-5-19,63.3,52.7,43.3,33.4,27.5,20.6,61,40,20,29.72,29.65,26,8,36,0.00
2013-5-20,63.9,51.3,38.8,37.2,31.5,23.4,72,48,22,29.77,29.68,23,6,36,0.00
2013-5-21,70.9,55.2,34.3,38.5,31.3,23.4,86,46,19,29.81,29.68,18,6,28,0.00
2013-5-22,78.3,61.4,41.4,37.3,27.0,19.2,59,31,14,29.73,29.64,24,6,38,0.00
2013-5-23,80.1,63.9,41.4,32.9,25.5,18.7,58,26,14,29.79,29.67,22,8,39,0.00
2013-5-24,77.5,63.1,42.4,32.1,22.8,14.9,49,23,14,29.87,29.76,18,6,28,0.00
2013-5-25,81.7,63.2,41.9,30.1,24.1,19.3,48,25,13,29.87,29.75,16,6,27,0.00
2013-5-26,76.3,60.8,41.9,31.2,23.1,16.0,50,26,13,29.86,29.74,14,6,25,0.00
2013-5-27,74.1,59.1,38.7,29.1,20.8,15.7,52,25,13,29.79,29.67,14,5,25,0.00
2013-5-28,73.8,59.4,40.8,35.4,23.2,18.7,48,27,14,29.70,29.52,14,5,25,0.00
2013-5-29,66.9,56.6,45.1,44.0,30.6,18.9,82,41,18,29.65,29.53,21,10,33,0.00
2013-5-30,72.1,59.4,46.2,34.4,26.2,18.3,55,31,14,29.69,29.61,22,7,36,0.00
2013-5-31,72.9,59.5,41.0,32.8,22.0,14.3,57,27,13,29.83,29.69,21,7,34,0.00
2013-6-1,78.3,61.7,43.2,27.3,19.3,8.4,34,20,13,29.90,29.79,13,7,21,0.00
2013-6-2,85.5,65.1,42.4,37.0,27.1,18.2,45,26,13,29.88,29.70,10,5,19,0.00
2013-6-3,80.4,65.6,46.4,39.8,32.6,23.1,60,32,15,29.79,29.73,22,6,42,0.11
2013-6-4,84.7,67.5,45.5,42.4,30.0,21.5,60,28,13,29.82,29.73,15,6,27,0.00
2013-6-5,84.0,68.7,50.0,40.8,28.0,19.9,46,24,13,29.82,29.70,24,6,42,0.00
2013-6-6,86.4,67.9,50.5,40.2,29.3,21.7,42,25,13,29.83,29.73,15,6,26,0.00
2013-6-7,82.6,67.0,48.4,40.8,33.1,21.8,56,31,14,29.85,29.69,18,6,34,0.00
2013-6-8,89.4,71.3,49.1,42.3,33.3,23.9,55,28,13,29.78,29.67,13,6,31,0.00
2013-6-9,91.8,75.6,60.8,40.2,31.6,22.4,33,21,11,29.85,29.75,18,8,26,0.00
2013-6-10,91.8,75.7,52.3,42.8,30.8,21.1,44,21,11,29.89,29.76,15,6,26,0.00
2013-6-11,86.9,71.4,50.2,38.3,28.9,21.5,47,23,12,29.90,29.82,21,6,41,0.01
2013-6-12,88.2,71.9,50.9,37.5,29.0,21.7,44,21,13,29.95,29.88,14,5,25,0.00
2013-6-13,89.1,73.5,53.8,40.1,32.4,22.3,40,23,13,29.92,29.80,19,5,41,0.00
2013-6-14,86.7,72.8,55.6,45.2,35.4,21.5,59,29,13,29.88,29.74,17,6,27,0.00
2013-6-15,84.9,65.9,48.4,44.2,32.5,20.0,56,31,13,29.93,29.79,26,6,40,0.00
2013-6-16,83.5,67.8,50.7,45.1,37.8,27.2,63,37,14,29.94,29.83,16,6,28,0.00
2013-6-17,84.2,70.8,53.6,41.1,33.4,19.9,52,28,13,29.91,29.79,18,6,27,0.00
2013-6-18,84.6,69.6,50.5,47.5,31.9,18.6,53,27,12,29.89,29.73,18,6,26,0.00
2013-6-19,86.4,68.5,47.3,32.6,24.3,15.9,40,20,12,29.80,29.67,18,6,38,0.01
2013-6-20,85.3,67.4,46.9,32.8,23.6,15.2,35,20,12,29.83,29.72,16,6,28,0.00
2013-6-21,83.8,67.5,45.9,32.5,25.2,18.2,46,22,13,29.87,29.75,15,5,24,0.00
2013-6-22,83.1,68.0,47.5,32.3,25.0,19.9,45,21,13,29.83,29.72,17,6,32,0.00
2013-6-23,84.4,68.1,45.1,32.9,24.8,17.9,50,21,13,29.81,29.70,13,5,24,0.00
2013-6-24,81.9,66.6,50.0,34.4,23.6,16.9,38,21,13,29.82,29.73,16,6,29,0.00
2013-6-25,84.4,68.6,48.7,36.6,27.6,16.4,38,22,15,29.88,29.79,17,6,35,0.00
2013-6-26,90.7,74.9,52.2,40.6,34.6,28.7,51,25,13,29.95,29.86,17,6,26,0.00
2013-6-27,99.3,78.1,58.5,44.9,36.6,31.0,44,24,11,30.00,29.92,16,4,24,0.00
2013-6-28,97.0,76.6,56.7,46.4,39.1,30.4,48,28,12,30.05,29.92,21,7,34,0.00
2013-6-29,89.4,69.5,57.9,56.0,46.9,37.2,75,47,22,30.02,29.88,23,5,30,0.09
2013-6-30,87.1,70.8,53.6,54.3,48.5,39.6,81,49,24,29.97,29.81,21,5,30,0.00
2013-7-1,87.8,70.9,52.5,50.4,46.9,43.5,81,47,24,30.00,29.83,13,6,25,0.00
2013-7-2,88.0,69.7,52.3,52.3,48.3,43.5,82,50,22,30.01,29.78,14,5,22,0.00
2013-7-3,89.1,69.6,52.5,52.7,47.7,29.4,84,50,12,29.93,29.71,18,6,27,0.00
2013-7-4,85.5,72.0,55.6,49.9,44.9,37.2,68,41,21,29.84,29.73,14,4,40,0.00
2013-7-5,90.0,71.6,59.7,57.4,49.9,44.3,72,49,22,29.84,29.71,18,6,29,0.00
2013-7-6,87.6,70.3,58.1,56.5,52.7,44.6,86,57,24,29.91,29.73,11,4,27,0.02
2013-7-7,88.9,74.3,58.6,54.8,50.1,42.3,86,48,23,29.90,29.77,14,5,26,0.00
2013-7-8,92.5,76.6,59.4,53.9,46.3,32.3,70,38,13,29.98,29.85,17,7,29,0.00
2013-7-9,97.3,77.2,58.8,52.7,45.5,34.5,69,37,12,30.01,29.89,22,5,36,0.00
2013-7-10,96.8,74.5,60.4,57.3,49.0,37.9,76,44,14,29.99,29.84,18,5,26,0.00
2013-7-11,89.2,70.4,57.2,58.3,53.3,47.8,85,58,28,29.98,29.78,27,5,49,0.81
2013-7-12,85.5,69.3,59.9,61.5,56.0,45.8,89,66,31,29.92,29.83,18,5,26,0.25
2013-7-13,88.5,71.6,57.2,57.9,53.6,44.5,88,57,27,29.96,29.84,11,4,22,0.00
2013-7-14,88.9,71.2,59.9,60.0,54.1,47.3,90,58,26,29.95,29.82,18,4,25,0.01
2013-7-15,81.0,66.2,59.2,62.5,58.4,49.0,99,79,34,29.93,29.85,15,4,23,0.27
2013-7-16,77.9,64.3,56.5,59.6,56.0,51.9,99,77,46,29.99,29.88,7,3,12,0.05
2013-7-17,85.5,68.3,55.9,57.8,54.0,47.9,95,64,32,30.05,29.93,10,4,17,0.00
2013-7-18,83.1,70.0,55.0,56.7,51.9,46.3,86,55,33,30.03,29.88,13,5,22,0.00
2013-7-19,86.2,71.4,56.3,55.9,52.6,46.2,84,54,27,29.95,29.82,13,5,23,0.04
2013-7-20,84.7,70.7,58.5,56.1,53.2,46.8,81,56,31,29.93,29.77,15,4,27,0.00
2013-7-21,86.2,69.7,55.8,53.6,49.1,39.0,77,51,24,29.89,29.80,18,5,27,0.00
2013-7-22,92.7,71.7,54.0,53.5,46.5,35.6,75,44,15,29.91,29.82,18,5,34,0.00
2013-7-23,92.1,72.4,58.3,49.1,45.7,38.5,64,41,16,29.93,29.84,13,4,21,0.00
2013-7-24,91.2,72.5,57.7,58.4,48.2,37.8,95,48,17,29.99,29.83,20,5,32,0.12
2013-7-25,86.7,70.3,55.4,57.2,52.6,40.2,99,59,27,29.98,29.84,14,5,23,0.00
2013-7-26,87.1,72.5,58.3,56.5,51.6,45.6,86,51,28,30.03,29.91,18,5,21,0.00
2013-7-27,84.0,68.7,53.4,59.1,52.2,44.8,93,60,27,30.03,29.80,14,5,21,0.00
2013-7-28,77.7,64.7,57.4,63.0,56.3,47.5,99,77,43,29.88,29.78,22,4,31,0.18
2013-7-29,83.1,68.4,53.2,57.3,49.7,38.1,98,57,21,29.97,29.84,19,5,29,0.00
2013-7-30,88.0,72.3,54.3,52.3,44.0,31.6,76,42,15,30.06,29.97,15,6,26,0.00
2013-7-31,91.6,75.3,56.5,46.4,39.4,32.3,57,31,13,30.07,29.92,9,5,18,0.00
2013-8-1,79.3,65.9,58.1,63.2,51.0,38.6,96,61,33,30.03,29.91,17,4,27,0.08
2013-8-2,86.7,68.3,53.2,58.3,54.5,48.1,99,66,32,30.00,29.84,15,5,25,0.04
2013-8-3,85.6,68.4,55.6,59.8,54.2,46.2,99,66,29,30.00,29.89,16,5,24,0.07
2013-8-4,88.7,70.2,55.2,58.6,49.9,43.2,94,53,23,30.01,29.88,18,6,27,0.02
2013-8-5,86.9,69.8,54.5,58.3,52.3,41.9,99,60,25,30.01,29.83,15,6,26,0.00
2013-8-6,81.3,66.2,56.7,57.5,51.5,45.7,99,63,32,29.93,29.84,14,6,24,0.09
2013-8-7,76.5,60.1,53.8,57.6,55.0,50.0,99,86,44,29.91,29.85,17,4,23,0.30
2013-8-8,67.6,58.0,51.8,57.6,52.5,45.0,99,83,54,29.92,29.84,10,4,17,0.04
2013-8-9,83.1,64.3,48.0,51.1,45.6,31.5,89,56,17,29.97,29.89,15,5,31,0.00
2013-8-10,80.1,60.7,50.4,51.5,48.3,44.1,93,67,33,30.08,29.94,24,6,38,0.25
2013-8-11,81.5,64.3,48.6,51.0,46.2,40.2,92,56,26,30.04,29.90,11,4,18,0.00
2013-8-12,82.6,67.2,52.7,49.7,46.0,38.4,77,50,23,29.98,29.88,11,4,18,0.00
2013-8-13,85.8,68.9,52.5,51.6,41.2,26.0,73,42,13,30.01,29.89,13,5,24,0.00
2013-8-14,85.3,69.6,51.6,43.9,36.7,27.5,63,33,15,29.99,29.88,14,5,25,0.00
2013-8-15,89.1,71.6,52.5,44.1,35.2,27.2,52,29,13,29.99,29.88,10,5,21,0.00
2013-8-16,90.3,73.9,57.6,40.4,34.1,28.7,42,25,12,30.00,29.89,14,5,21,0.00
2013-8-17,90.3,70.9,53.6,47.1,40.5,30.6,58,35,17,30.00,29.89,18,5,42,0.00
2013-8-18,88.2,70.0,54.3,49.6,46.6,40.3,72,46,23,30.00,29.88,12,5,24,0.00
2013-8-19,89.1,71.9,57.7,50.6,47.1,41.1,66,44,22,29.98,29.87,12,4,21,0.00
2013-8-20,91.0,71.3,56.5,51.0,47.5,44.5,70,45,22,29.94,29.84,16,6,25,0.00
2013-8-21,90.3,70.6,55.8,58.4,47.0,40.2,94,47,21,30.02,29.86,20,7,30,0.07
2013-8-22,86.5,71.8,57.7,55.6,49.3,40.8,85,49,24,29.99,29.85,12,5,21,0.00
2013-8-23,85.6,71.6,54.5,53.9,43.5,23.7,85,43,12,29.94,29.79,18,6,30,0.01
2013-8-24,78.3,65.0,57.2,56.9,52.3,46.0,96,66,34,29.98,29.88,17,5,27,0.07
2013-8-25,75.6,61.0,56.3,61.9,58.4,55.6,99,92,55,30.04,29.96,11,4,17,0.72
2013-8-26,85.3,69.2,57.0,60.2,56.7,49.0,99,69,33,30.04,29.92,8,4,28,0.02
2013-8-27,90.0,71.4,57.6,57.1,52.8,39.1,86,56,18,29.98,29.85,9,4,15,0.00
2013-8-28,88.0,72.1,57.2,55.7,51.0,34.6,79,51,16,29.96,29.86,11,4,20,0.00
2013-8-29,91.2,70.6,57.6,55.8,51.7,46.5,77,54,23,30.02,29.92,12,4,17,0.00
2013-8-30,91.8,73.1,59.5,55.8,50.2,44.3,72,48,21,30.01,29.88,16,4,34,0.07
2013-8-31,88.7,71.8,55.9,56.7,52.7,48.1,88,55,26,29.97,29.82,18,5,23,0.04
2013-9-1,89.8,72.8,57.0,56.3,49.5,40.8,75,47,23,30.00,29.83,12,5,21,0.00
2013-9-2,89.8,71.5,59.4,58.2,52.1,41.9,93,56,22,30.00,29.86,10,4,17,0.00
2013-9-3,88.2,69.6,58.8,59.7,52.5,46.8,81,57,27,30.00,29.91,14,4,22,0.12
2013-9-4,91.4,73.9,57.4,56.1,51.3,44.3,87,50,22,30.02,29.91,11,4,20,0.00
2013-9-5,90.5,73.8,56.7,52.9,45.3,33.1,77,41,17,30.04,29.92,10,5,17,0.00
2013-9-6,90.5,73.0,55.0,45.1,38.6,33.8,54,32,14,30.03,29.86,8,4,17,0.00
2013-9-7,89.8,72.9,56.7,47.8,43.1,35.9,61,37,17,29.96,29.83,10,4,18,0.00
2013-9-8,86.4,69.8,55.6,54.3,49.3,40.0,83,51,23,29.91,29.76,13,4,21,0.00
2013-9-9,81.9,64.5,55.4,55.6,52.1,45.0,95,67,32,29.84,29.71,15,4,28,0.09
2013-9-10,62.4,57.8,56.3,58.7,56.0,53.9,99,94,81,29.90,29.79,13,5,18,0.56
2013-9-11,79.2,62.2,55.2,62.3,54.8,48.9,99,80,42,29.93,29.86,9,4,12,0.45
2013-9-12,79.3,60.7,51.6,57.5,52.8,47.1,99,78,41,29.95,29.83,13,4,20,0.50
2013-9-13,72.1,59.9,51.1,59.4,54.6,48.4,99,84,54,29.88,29.77,12,4,17,0.21
2013-9-14,70.5,58.6,50.7,56.0,52.9,49.1,99,82,52,29.87,29.75,16,6,26,0.09
2013-9-15,77.0,60.5,49.3,54.3,50.8,46.5,99,74,38,29.93,29.83,13,4,19,0.00
2013-9-16,79.5,62.6,52.3,55.0,51.7,47.3,95,71,33,29.98,29.85,9,4,15,0.00
2013-9-17,79.2,64.6,54.0,56.4,52.8,48.0,91,68,36,29.93,29.76,8,4,15,0.01
2013-9-18,74.5,59.8,51.3,59.3,54.1,48.9,99,84,48,29.85,29.70,15,5,25,0.00
2013-9-19,76.5,61.3,48.7,55.4,46.7,33.4,96,64,21,29.84,29.76,11,4,19,0.00
2013-9-20,77.7,61.6,46.2,46.7,41.1,33.4,79,51,22,29.91,29.78,10,4,18,0.00
2013-9-21,77.4,61.7,48.4,53.3,46.4,40.7,88,60,33,29.89,29.73,9,4,15,0.01
2013-9-22,63.0,52.1,39.9,56.5,49.1,39.3,99,90,68,29.75,29.49,20,5,39,0.97
2013-9-23,68.0,51.9,36.7,42.4,36.5,28.3,99,62,26,29.90,29.61,14,5,22,0.00
2013-9-24,77.2,56.3,40.1,43.1,36.4,23.6,79,52,18,29.95,29.78,6,4,11,0.00
2013-9-25,74.3,58.8,42.1,42.3,35.1,27.1,76,45,20,29.81,29.54,22,6,27,0.00
2013-9-26,70.7,57.7,43.2,36.3,29.7,21.6,67,38,17,29.69,29.57,20,8,30,0.00
2013-9-27,59.2,47.2,36.3,48.1,35.6,21.5,98,67,30,29.84,29.59,18,6,30,0.19
2013-9-28,65.8,45.9,27.9,33.4,25.7,20.0,85,50,19,29.97,29.84,7,3,12,0.00
2013-9-29,69.1,51.6,34.3,37.2,27.3,16.3,77,44,17,29.98,29.85,21,6,26,0.00
2013-9-30,73.2,56.2,38.8,36.9,29.9,23.2,68,40,16,29.88,29.76,12,5,21,0.00
2013-10-1,74.1,57.5,41.4,43.3,31.8,21.1,72,43,14,29.85,29.78,9,4,15,0.00
2013-10-2,71.8,56.2,39.4,37.4,28.1,21.6,63,37,16,30.51,29.74,10,5,18,0.00
2013-10-3,67.5,53.9,37.0,37.8,30.6,25.9,74,43,24,29.75,29.58,14,5,27,0.00
2013-10-4,53.8,43.7,30.7,33.5,20.8,7.6,78,43,22,29.85,29.59,16,7,29,0.00
2013-10-5,55.0,41.0,24.6,25.7,17.8,5.3,69,41,23,29.99,29.85,12,5,19,0.00
2013-10-6,66.7,46.3,27.0,29.8,23.0,16.0,67,44,19,30.01,29.94,9,4,14,0.00
2013-10-7,75.2,53.7,34.3,31.5,26.2,19.9,64,39,14,29.99,29.85,8,3,12,0.00
2013-10-8,71.4,54.6,38.5,33.7,28.2,23.5,62,39,18,29.85,29.67,14,5,24,0.00
2013-10-9,68.2,53.1,37.6,39.3,29.8,20.0,75,45,16,29.74,29.64,20,6,39,0.02
2013-10-10,51.4,40.6,32.4,43.2,35.5,32.1,99,84,56,29.71,29.54,20,4,33,0.48
2013-10-11,54.7,38.4,32.2,41.1,35.1,31.9,99,89,56,29.83,29.70,6,2,8,0.28
2013-10-12,61.2,44.3,30.0,38.5,31.9,25.5,99,66,27,29.88,29.81,7,4,12,0.01
2013-10-13,65.1,51.8,41.7,44.4,37.6,32.2,74,59,35,29.87,29.69,14,5,27,0.00
2013-10-14,54.9,45.0,34.2,37.6,29.7,24.1,85,56,32,29.84,29.74,19,6,27,0.00
2013-10-15,59.0,43.1,27.0,33.9,24.8,19.2,83,51,26,29.83,29.71,16,5,30,0.00
2013-10-16,53.2,40.6,31.5,37.7,28.5,19.0,97,66,29,29.85,29.76,12,5,22,0.00
2013-10-17,56.3,41.3,25.5,30.3,20.6,11.4,79,48,21,29.86,29.71,14,5,21,0.00
2013-10-18,60.6,42.6,25.9,28.3,16.0,3.3,68,37,21,29.88,29.72,14,5,21,0.00
2013-10-19,59.7,41.4,25.2,25.6,17.9,5.1,64,41,21,29.91,29.78,12,4,21,0.00
2013-10-20,64.2,45.8,27.1,29.5,20.9,15.4,70,41,19,29.81,29.65,17,5,30,0.00
2013-10-21,62.6,46.8,31.5,29.7,21.9,17.4,65,40,21,29.91,29.74,13,5,21,0.00
2013-10-22,68.0,47.0,28.0,26.6,21.2,15.0,65,39,18,29.96,29.89,6,4,12,0.00
2013-10-23,70.5,50.7,31.5,31.4,23.8,15.7,70,40,15,29.94,29.84,8,4,13,0.00
2013-10-24,74.1,53.5,36.3,36.4,24.6,21.1,60,35,15,29.95,29.85,12,4,22,0.00
2013-10-25,65.7,48.7,40.1,43.1,39.7,35.1,99,74,36,29.96,29.87,16,4,24,0.01
2013-10-26,63.7,48.6,34.5,42.0,36.7,25.8,99,68,25,30.00,29.93,12,4,18,0.01
2013-10-27,65.5,47.8,34.5,38.6,32.8,24.3,85,60,24,29.97,29.67,8,4,15,0.00
2013-10-28,60.8,49.2,37.0,36.3,26.6,15.7,80,46,21,29.71,29.62,18,7,40,0.00
2013-10-29,51.1,42.5,32.4,38.0,30.4,20.9,99,64,37,29.74,29.61,21,6,34,0.09
2013-10-30,47.3,32.5,26.2,37.1,29.7,21.7,99,90,48,29.71,29.63,11,4,20,0.13
2013-10-31,53.2,34.1,20.8,31.8,24.7,17.6,89,71,36,29.80,29.68,12,3,18,0.01
2013-11-1,59.0,38.1,23.4,33.1,26.1,19.8,91,66,29,29.96,29.80,9,3,16,0.00
2013-11-2,64.9,43.0,26.1,33.8,23.9,17.8,78,51,19,29.98,29.77,8,4,13,0.00
2013-11-3,59.4,42.6,32.5,35.1,23.7,16.0,76,49,25,29.78,29.56,14,4,22,0.00
2013-11-4,54.1,40.6,25.5,36.0,24.2,14.8,95,55,24,29.69,29.60,12,4,18,0.01
2013-11-5,45.0,35.1,22.6,35.3,17.7,1.6,99,55,23,29.90,29.59,20,7,27,0.00
2013-11-6,48.0,31.0,17.1,16.3,9.5,-0.8,66,42,23,30.08,29.89,11,4,21,0.00
2013-11-7,63.7,40.3,22.8,27.1,18.4,12.7,67,45,20,30.09,29.93,8,3,11,0.00
2013-11-8,59.7,43.1,27.0,28.5,19.5,11.4,66,42,22,29.94,29.75,16,6,24,0.00
2013-11-9,63.3,43.6,29.8,25.6,20.1,16.2,64,42,20,29.96,29.83,14,5,20,0.00
2013-11-10,63.7,45.3,29.7,24.3,19.8,15.7,61,39,19,30.01,29.88,10,4,18,0.00
2013-11-11,65.8,45.6,30.0,24.4,20.3,16.3,60,39,18,30.07,29.92,10,5,16,0.00
2013-11-12,65.8,47.4,29.1,23.8,19.7,14.4,62,36,18,30.17,30.02,9,4,17,0.00
2013-11-13,60.6,42.6,29.7,29.2,25.0,19.4,69,52,26,30.14,29.84,8,4,12,0.00
2013-11-14,55.4,36.3,28.8,26.4,23.0,12.1,75,61,21,30.08,29.80,14,5,20,0.27
2013-11-15,53.2,37.8,27.3,38.2,28.1,19.3,99,70,33,29.94,29.66,11,4,21,0.17
2013-11-16,43.9,38.1,30.6,39.3,33.9,29.7,99,86,64,29.78,29.68,21,6,34,0.08
2013-11-17,54.0,40.2,29.5,34.4,29.7,25.0,88,68,40,30.13,29.78,19,7,29,0.00
2013-11-18,58.6,40.6,28.2,32.6,26.1,21.3,84,60,29,30.19,30.03,8,4,11,0.00
2013-11-19,53.6,40.9,28.0,33.2,28.1,21.0,85,62,33,30.10,29.91,7,3,14,0.00
2013-11-20,53.8,38.6,28.6,37.9,31.5,24.8,98,78,44,29.93,29.85,11,4,17,0.11
2013-11-21,49.1,38.8,36.0,45.4,37.6,35.2,99,95,73,30.06,29.91,13,3,18,0.22
2013-11-22,38.5,35.8,33.1,38.2,35.1,32.8,99,97,94,30.16,30.03,10,4,14,0.72
2013-11-23,41.5,35.9,31.5,40.2,34.7,31.2,99,95,80,30.17,30.08,10,3,17,0.28
2013-11-24,31.5,27.1,22.5,31.0,25.3,19.5,99,93,82,30.11,29.95,0,0,0,0.00
2013-11-25,36.7,27.4,23.4,28.8,24.0,20.1,95,87,67,30.19,29.93,0,0,0,0.06
2013-11-26,34.3,27.6,23.0,26.3,23.2,18.9,88,83,70,30.26,30.19,0,0,3,0.00
2013-11-27,51.6,32.0,20.1,31.4,24.1,15.3,91,74,43,30.24,30.09,6,2,8,0.21
2013-11-28,55.4,35.9,24.6,33.4,24.3,19.1,83,64,33,30.17,30.04,7,3,9,0.01
2013-11-29,53.2,36.3,26.2,30.2,23.9,17.8,80,62,35,30.24,30.11,7,4,12,0.00
2013-11-30,53.1,35.1,24.6,33.5,26.0,18.7,94,71,42,30.23,30.11,12,4,17,0.00
2013-12-1,28.6,26.9,24.4,28.2,25.6,23.2,99,95,92,30.23,30.14,6,2,10,0.00
2013-12-2,28.8,27.2,25.9,28.3,25.8,23.9,98,94,91,30.15,29.85,6,2,8,0.00
2013-12-3,49.8,35.0,21.4,33.1,25.7,19.5,94,71,42,29.86,29.59,12,3,21,0.00
2013-12-4,41.0,28.3,10.2,30.9,18.0,-0.5,92,66,48,29.82,29.55,26,8,39,0.09
2013-12-5,30.4,16.9,7.2,14.4,3.9,-4.4,70,57,34,29.83,29.75,12,4,17,0.00
2013-12-6,28.4,17.2,9.5,9.0,2.6,-2.8,74,53,32,29.99,29.82,15,6,22,0.00
2013-12-7,27.9,20.8,12.7,20.2,9.9,-3.0,86,64,41,29.97,29.67,19,4,28,0.00
2013-12-8,24.3,15.6,-0.8,20.0,-0.2,-17.4,87,51,26,29.89,29.64,20,10,36,0.00
2013-12-9,26.2,7.4,-5.6,-1.4,-12.8,-23.7,56,39,24,30.23,29.89,9,4,13,0.00
2013-12-10,22.1,1.7,-4.7,0.4,-12.5,-16.5,60,51,30,30.25,30.18,6,3,8,0.00
2013-12-11,55.4,36.4,18.9,30.0,15.6,4.2,76,46,21,29.98,29.62,14,5,20,2.23
2013-12-12,54.9,30.8,15.3,21.8,10.7,0.4,59,44,22,29.99,29.69,9,3,12,0.00
2013-12-13,55.4,27.0,14.0,23.2,13.5,5.9,75,58,21,29.96,29.54,13,4,17,2.23
2013-12-14,40.5,23.9,12.0,20.9,12.5,5.6,77,63,42,30.20,29.96,11,4,15,0.00
2013-12-15,46.2,25.3,11.7,22.1,13.5,5.3,76,62,35,30.21,30.11,6,3,10,0.00
2013-12-16,48.6,28.5,16.0,26.5,16.8,7.5,76,63,38,30.23,30.11,6,3,9,0.00
2013-12-17,51.1,32.5,16.7,25.9,17.6,6.5,74,56,26,30.26,30.13,7,3,9,0.00
2013-12-18,53.4,35.0,20.5,27.7,19.9,10.8,75,55,28,30.14,29.82,8,3,11,0.00
2013-12-19,51.4,37.5,28.2,27.7,23.3,18.4,77,58,33,29.82,29.63,8,3,22,0.00
2013-12-20,42.6,31.9,24.1,32.8,26.3,18.6,90,80,61,29.71,29.59,7,3,12,0.00
2013-12-21,37.9,27.0,19.6,21.0,16.0,5.3,81,64,38,29.71,29.51,14,4,24,0.00
2013-12-22,39.4,25.7,14.0,21.0,9.3,2.6,68,50,31,30.07,29.71,12,4,18,0.00
2013-12-23,41.4,24.6,12.0,16.4,10.0,2.9,68,54,31,30.24,30.07,6,3,10,0.00
2013-12-24,45.3,29.9,15.8,25.0,12.9,3.8,70,50,27,30.20,29.97,18,4,27,0.00
2013-12-25,49.3,28.3,14.0,18.0,8.3,-1.0,64,44,21,30.21,30.09,8,3,12,0.00
2013-12-26,49.1,29.1,14.9,19.2,10.4,1.7,66,47,24,30.19,30.05,5,3,9,0.00
2013-12-27,53.2,32.9,17.4,23.3,15.4,7.0,69,51,23,30.20,30.05,7,3,10,0.00
2013-12-28,45.9,31.3,20.3,23.6,17.9,12.5,74,58,34,30.07,29.83,6,3,10,0.00
2013-12-29,48.2,29.4,19.0,24.9,17.4,11.4,79,62,32,30.03,29.83,11,4,17,0.00
2013-12-30,46.4,26.7,14.7,21.7,12.9,5.5,72,57,29,30.15,30.02,6,3,9,0.00
2013-12-31,47.5,30.5,16.9,21.0,15.3,7.2,71,55,29,30.14,29.96,10,3,16,0.00
2014-1-1,51.6,33.9,19.8,23.9,13.0,-4.0,75,46,21,30.11,29.95,20,6,30,0.00
2014-1-2,50.4,31.0,16.0,16.3,9.6,0.7,60,42,22,30.17,30.05,6,3,11,0.00